Time,TemperatureF,DewpointF,PressureIn,WindDirection,WindDirectionDegrees,WindSpeedMPH,WindSpeedGustMPH,Humidity,HourlyPrecipIn,Conditions,Clouds,dailyrainin,SoftwareType,DateUTC
2013-03-01 00:02:00,30.0,28.0,29.96,NNW,328,2.0,5.0,91,0.00,,,0.14,,2013-03-01 05:02:00,
2013-03-01 00:11:00,30.0,28.0,29.96,NNW,328,2.0,5.0,91,0.00,,,0.14,,2013-03-01 05:11:00,
2013-03-01 00:22:00,30.0,27.0,29.96,North,9,2.0,5.0,90,0.00,,,0.14,,2013-03-01 05:22:00,
2013-03-01 00:33:00,30.0,27.0,29.96,NNE,23,5.0,9.0,88,0.00,,,0.14,,2013-03-01 05:33:00,
2013-03-01 00:42:00,30.0,27.0,29.96,NNE,23,5.0,9.0,88,0.00,,,0.14,,2013-03-01 05:42:00,
2013-03-01 00:52:00,30.0,26.0,29.96,North,350,5.0,8.0,86,0.00,,,0.14,,2013-03-01 05:52:00,
2013-03-01 01:02:00,30.0,26.0,29.96,NW,320,4.0,7.0,85,0.00,,,0.14,,2013-03-01 06:02:00,
2013-03-01 01:12:00,30.0,26.0,29.96,NW,320,4.0,7.0,85,0.00,,,0.14,,2013-03-01 06:12:00,
2013-03-01 01:22:00,30.0,25.0,29.96,NNW,333,6.0,12.0,83,0.00,,,0.14,,2013-03-01 06:22:00,
2013-03-01 01:32:00,30.0,26.0,29.97,North,11,5.0,10.0,85,0.00,,,0.14,,2013-03-01 06:32:00,
2013-03-01 01:42:00,30.0,26.0,29.97,North,11,5.0,10.0,85,0.00,,,0.14,,2013-03-01 06:42:00,
2013-03-01 01:52:00,30.0,26.0,29.97,NNW,340,6.0,10.0,84,0.00,,,0.14,,2013-03-01 06:52:00,
2013-03-01 02:02:00,30.0,26.0,29.97,NNE,13,3.0,8.0,84,0.00,,,0.14,,2013-03-01 07:02:00,
2013-03-01 02:12:00,30.0,26.0,29.97,NNE,13,3.0,8.0,84,0.00,,,0.14,,2013-03-01 07:12:00,
2013-03-01 02:22:00,30.0,25.0,29.98,NNE,13,5.0,8.0,83,0.00,,,0.14,,2013-03-01 07:22:00,
2013-03-01 02:32:00,29.0,25.0,29.98,NW,326,6.0,10.0,83,0.00,,,0.14,,2013-03-01 07:32:00,
2013-03-01 02:42:00,29.0,25.0,29.98,NW,326,6.0,10.0,83,0.00,,,0.14,,2013-03-01 07:42:00,
2013-03-01 02:52:00,29.0,25.0,29.98,North,352,5.0,10.0,83,0.00,,,0.14,,2013-03-01 07:52:00,
2013-03-01 03:02:00,29.0,25.0,29.97,NNW,330,4.0,9.0,83,0.00,,,0.14,,2013-03-01 08:02:00,
2013-03-01 03:12:00,29.0,25.0,29.97,NNW,330,4.0,9.0,83,0.00,,,0.14,,2013-03-01 08:12:00,
2013-03-01 03:22:00,29.0,25.0,29.97,WNW,302,5.0,11.0,83,0.00,,,0.14,,2013-03-01 08:22:00,
2013-03-01 03:32:00,29.0,24.0,29.97,NNW,346,7.0,10.0,82,0.00,,,0.14,,2013-03-01 08:32:00,
2013-03-01 03:43:00,29.0,24.0,29.97,NNW,346,7.0,10.0,82,0.00,,,0.14,,2013-03-01 08:43:00,
2013-03-01 03:52:00,29.0,25.0,29.97,NNW,342,5.0,10.0,83,0.00,,,0.14,,2013-03-01 08:52:00,
2013-03-01 04:02:00,29.0,24.0,29.97,NNW,345,6.0,12.0,82,0.00,,,0.14,,2013-03-01 09:02:00,
2013-03-01 04:12:00,29.0,24.0,29.97,NNW,345,6.0,12.0,82,0.00,,,0.14,,2013-03-01 09:12:00,
2013-03-01 04:22:00,29.0,25.0,29.97,NNE,30,6.0,10.0,83,0.00,,,0.14,,2013-03-01 09:22:00,
2013-03-01 04:32:00,29.0,25.0,29.97,NNW,347,6.0,10.0,83,0.00,,,0.14,,2013-03-01 09:32:00,
2013-03-01 04:42:00,29.0,25.0,29.97,NNW,347,6.0,10.0,83,0.00,,,0.14,,2013-03-01 09:42:00,
2013-03-01 04:52:00,29.0,25.0,29.97,NW,312,8.0,11.0,83,0.00,,,0.14,,2013-03-01 09:52:00,
2013-03-01 05:02:00,29.0,25.0,29.98,NNE,33,5.0,10.0,84,0.00,,,0.14,,2013-03-01 10:02:00,
2013-03-01 05:12:00,29.0,25.0,29.98,NNE,33,5.0,10.0,84,0.00,,,0.14,,2013-03-01 10:12:00,
2013-03-01 05:22:00,29.0,25.0,29.98,NNW,336,6.0,10.0,83,0.00,,,0.14,,2013-03-01 10:22:00,
2013-03-01 05:32:00,29.0,24.0,29.98,NNW,342,7.0,12.0,82,0.00,,,0.14,,2013-03-01 10:32:00,
2013-03-01 05:42:00,29.0,24.0,29.98,NNW,342,7.0,12.0,82,0.00,,,0.14,,2013-03-01 10:42:00,
2013-03-01 05:52:00,29.0,25.0,29.99,NNW,335,5.0,12.0,83,0.00,,,0.14,,2013-03-01 10:52:00,
2013-03-01 06:02:00,29.0,25.0,29.99,NE,46,4.0,9.0,83,0.00,,,0.14,,2013-03-01 11:02:00,
2013-03-01 06:11:00,29.0,25.0,29.99,NE,46,4.0,9.0,83,0.00,,,0.14,,2013-03-01 11:11:00,
2013-03-01 06:23:00,29.0,24.0,29.99,NNE,24,6.0,11.0,82,0.00,,,0.14,,2013-03-01 11:23:00,
2013-03-01 06:32:00,28.0,23.0,30.00,NW,326,6.0,12.0,82,0.00,,,0.14,,2013-03-01 11:32:00,
2013-03-01 06:42:00,28.0,23.0,30.00,NW,326,6.0,12.0,82,0.00,,,0.14,,2013-03-01 11:42:00,
2013-03-01 06:52:00,28.0,23.0,30.00,NE,39,7.0,13.0,81,0.00,,,0.14,,2013-03-01 11:52:00,
2013-03-01 07:02:00,28.0,23.0,30.00,NE,46,4.0,10.0,82,0.00,,,0.14,,2013-03-01 12:02:00,
2013-03-01 07:11:00,28.0,23.0,30.00,NE,46,4.0,10.0,82,0.00,,,0.14,,2013-03-01 12:11:00,
2013-03-01 07:22:00,28.0,23.0,30.00,NNE,30,5.0,13.0,82,0.00,,,0.14,,2013-03-01 12:22:00,
2013-03-01 07:32:00,28.0,24.0,30.01,NNW,345,4.0,9.0,83,0.00,,,0.14,,2013-03-01 12:32:00,
2013-03-01 07:42:00,28.0,24.0,30.01,NNW,345,4.0,9.0,83,0.00,,,0.14,,2013-03-01 12:42:00,
2013-03-01 07:52:00,28.0,23.0,30.01,North,1,6.0,12.0,81,0.00,,,0.14,,2013-03-01 12:52:00,
2013-03-01 08:01:00,28.0,23.0,30.02,NNE,33,7.0,12.0,82,0.00,,,0.14,,2013-03-01 13:01:00,
2013-03-01 08:11:00,28.0,23.0,30.02,NNE,33,7.0,12.0,82,0.00,,,0.14,,2013-03-01 13:11:00,
2013-03-01 08:22:00,28.0,23.0,30.03,NNW,342,6.0,12.0,81,0.00,,,0.14,,2013-03-01 13:22:00,
2013-03-01 08:32:00,28.0,23.0,30.03,NE,42,4.0,10.0,80,0.00,,,0.14,,2013-03-01 13:32:00,
2013-03-01 08:42:00,28.0,23.0,30.03,NE,42,4.0,10.0,80,0.00,,,0.14,,2013-03-01 13:42:00,
2013-03-01 08:52:00,28.0,23.0,30.04,NNW,339,9.0,12.0,80,0.00,,,0.14,,2013-03-01 13:52:00,
2013-03-01 09:02:00,28.0,22.0,30.04,NE,43,7.0,15.0,79,0.00,,,0.14,,2013-03-01 14:02:00,
2013-03-01 09:11:00,28.0,22.0,30.04,NE,43,7.0,15.0,79,0.00,,,0.14,,2013-03-01 14:11:00,
2013-03-01 09:22:00,28.0,22.0,30.05,NNE,19,8.0,12.0,79,0.00,,,0.14,,2013-03-01 14:22:00,
2013-03-01 09:32:00,27.0,22.0,30.05,NNW,339,5.0,11.0,80,0.00,,,0.13,,2013-03-01 14:32:00,
2013-03-01 09:42:00,27.0,22.0,30.05,NNW,339,5.0,11.0,80,0.00,,,0.13,,2013-03-01 14:42:00,
2013-03-01 09:52:00,27.0,21.0,30.05,North,360,7.0,13.0,79,0.00,,,0.13,,2013-03-01 14:52:00,
2013-03-01 10:02:00,27.0,21.0,30.05,North,351,4.0,12.0,79,0.00,,,0.13,,2013-03-01 15:02:00,
2013-03-01 10:11:00,27.0,22.0,30.06,North,350,6.0,10.0,80,0.00,,,0.13,,2013-03-01 15:11:00,
2013-03-01 10:21:00,27.0,22.0,30.06,North,350,6.0,10.0,80,0.00,,,0.13,,2013-03-01 15:21:00,
2013-03-01 10:32:00,27.0,22.0,30.06,NW,311,4.0,11.0,82,0.00,,,0.10,,2013-03-01 15:32:00,
2013-03-01 10:42:00,27.0,22.0,30.06,NW,311,4.0,11.0,82,0.00,,,0.10,,2013-03-01 15:42:00,
2013-03-01 10:52:00,27.0,22.0,30.06,NW,311,4.0,11.0,82,0.00,,,0.10,,2013-03-01 15:52:00,
2013-03-01 11:01:00,27.0,22.0,30.06,NNE,12,7.0,13.0,80,0.00,,,0.10,,2013-03-01 16:01:00,
2013-03-01 11:11:00,27.0,22.0,30.06,NNE,12,7.0,13.0,80,0.00,,,0.10,,2013-03-01 16:11:00,
2013-03-01 11:22:00,27.0,22.0,30.07,NNW,339,7.0,14.0,80,0.00,,,0.10,,2013-03-01 16:22:00,
2013-03-01 11:32:00,27.0,22.0,30.07,North,355,5.0,11.0,81,0.00,,,0.05,,2013-03-01 16:32:00,
2013-03-01 11:42:00,27.0,22.0,30.07,North,355,5.0,11.0,81,0.00,,,0.05,,2013-03-01 16:42:00,
2013-03-01 11:52:00,27.0,22.0,30.07,NW,315,5.0,13.0,81,0.00,,,0.05,,2013-03-01 16:52:00,
2013-03-01 12:01:00,27.0,22.0,30.07,NW,315,5.0,13.0,81,0.00,,,0.05,,2013-03-01 17:01:00,
2013-03-01 12:11:00,27.0,22.0,30.07,NW,315,5.0,13.0,81,0.00,,,0.05,,2013-03-01 17:11:00,
2013-03-01 12:21:00,27.0,21.0,30.08,NW,317,7.0,12.0,78,0.00,,,0.05,,2013-03-01 17:21:00,
2013-03-01 12:32:00,27.0,22.0,30.08,NW,316,6.0,13.0,80,0.00,,,0.00,,2013-03-01 17:32:00,
2013-03-01 12:42:00,27.0,22.0,30.08,NW,316,6.0,13.0,80,0.00,,,0.00,,2013-03-01 17:42:00,
2013-03-01 12:52:00,27.0,21.0,30.08,NNE,16,5.0,11.0,79,0.00,,,0.00,,2013-03-01 17:52:00,
2013-03-01 13:02:00,27.0,21.0,30.07,NNE,18,5.0,12.0,79,0.00,,,0.00,,2013-03-01 18:02:00,
2013-03-01 13:12:00,27.0,21.0,30.07,NNE,18,5.0,12.0,79,0.00,,,0.00,,2013-03-01 18:12:00,
2013-03-01 13:22:00,27.0,21.0,30.07,NNW,347,7.0,12.0,78,0.00,,,0.00,,2013-03-01 18:22:00,
2013-03-01 13:32:00,27.0,21.0,30.06,NNW,331,5.0,11.0,79,0.00,,,0.00,,2013-03-01 18:32:00,
2013-03-01 13:42:00,27.0,21.0,30.06,NNW,331,5.0,11.0,79,0.00,,,0.00,,2013-03-01 18:42:00,
2013-03-01 13:52:00,27.0,21.0,30.06,NNW,338,6.0,13.0,78,0.00,,,0.00,,2013-03-01 18:52:00,
2013-03-01 14:02:00,27.0,21.0,30.06,North,8,5.0,10.0,78,0.00,,,0.00,,2013-03-01 19:02:00,
2013-03-01 14:11:00,27.0,21.0,30.06,North,8,5.0,10.0,78,0.00,,,0.00,,2013-03-01 19:11:00,
2013-03-01 14:21:00,27.0,21.0,30.06,North,355,8.0,12.0,77,0.00,,,0.00,,2013-03-01 19:21:00,
2013-03-01 14:32:00,27.0,21.0,30.06,NW,317,4.0,8.0,78,0.00,,,0.00,,2013-03-01 19:32:00,
2013-03-01 14:42:00,27.0,21.0,30.06,NW,317,4.0,8.0,78,0.00,,,0.00,,2013-03-01 19:42:00,
2013-03-01 14:51:00,27.0,21.0,30.06,WNW,299,7.0,11.0,78,0.00,,,0.00,,2013-03-01 19:51:00,
2013-03-01 15:01:00,27.0,21.0,30.05,NNW,335,5.0,11.0,78,0.00,,,0.00,,2013-03-01 20:01:00,
2013-03-01 15:11:00,27.0,21.0,30.05,NNW,335,5.0,11.0,78,0.00,,,0.00,,2013-03-01 20:11:00,
2013-03-01 15:21:00,27.0,21.0,30.06,North,6,5.0,12.0,79,0.00,,,0.00,,2013-03-01 20:21:00,
2013-03-01 15:32:00,27.0,21.0,30.06,NW,315,5.0,13.0,79,0.00,,,0.00,,2013-03-01 20:32:00,
2013-03-01 15:42:00,27.0,21.0,30.06,NW,315,5.0,13.0,79,0.00,,,0.00,,2013-03-01 20:42:00,
2013-03-01 15:52:00,26.0,20.0,30.06,NW,307,5.0,12.0,78,0.00,,,0.00,,2013-03-01 20:52:00,
2013-03-01 16:02:00,26.0,20.0,30.06,North,349,6.0,11.0,78,0.00,,,0.00,,2013-03-01 21:02:00,
2013-03-01 16:11:00,26.0,20.0,30.06,North,349,6.0,11.0,78,0.00,,,0.00,,2013-03-01 21:11:00,
2013-03-01 16:21:00,26.0,20.0,30.06,NW,317,4.0,11.0,78,0.00,,,0.00,,2013-03-01 21:21:00,
2013-03-01 16:32:00,26.0,20.0,30.06,NNE,23,5.0,10.0,78,0.00,,,0.00,,2013-03-01 21:32:00,
2013-03-01 16:42:00,26.0,20.0,30.06,NNE,23,5.0,10.0,78,0.00,,,0.00,,2013-03-01 21:42:00,
2013-03-01 16:52:00,27.0,21.0,30.06,NW,314,5.0,13.0,78,0.00,,,0.00,,2013-03-01 21:52:00,
2013-03-01 17:01:00,27.0,21.0,30.07,North,360,5.0,11.0,79,0.00,,,0.00,,2013-03-01 22:01:00,
2013-03-01 17:11:00,27.0,21.0,30.07,North,360,5.0,11.0,79,0.00,,,0.00,,2013-03-01 22:11:00,
2013-03-01 17:22:00,26.0,20.0,30.07,NW,310,7.0,13.0,78,0.00,,,0.00,,2013-03-01 22:22:00,
2013-03-01 17:32:00,26.0,20.0,30.07,NNW,335,5.0,12.0,79,0.00,,,0.00,,2013-03-01 22:32:00,
2013-03-01 17:42:00,26.0,20.0,30.07,NNW,335,5.0,12.0,79,0.00,,,0.00,,2013-03-01 22:42:00,
2013-03-01 17:51:00,26.0,20.0,30.08,NW,314,6.0,10.0,79,0.00,,,0.00,,2013-03-01 22:51:00,
2013-03-01 18:01:00,26.0,21.0,30.08,NNW,335,5.0,10.0,81,0.00,,,0.00,,2013-03-01 23:01:00,
2013-03-01 18:11:00,26.0,21.0,30.08,NNW,335,5.0,10.0,81,0.00,,,0.00,,2013-03-01 23:11:00,
2013-03-01 18:21:00,26.0,21.0,30.08,NNW,328,5.0,12.0,80,0.00,,,0.00,,2013-03-01 23:21:00,
2013-03-01 18:32:00,26.0,20.0,30.09,NE,56,6.0,9.0,78,0.00,,,0.00,,2013-03-01 23:32:00,
2013-03-01 18:42:00,26.0,20.0,30.09,NE,56,6.0,9.0,78,0.00,,,0.00,,2013-03-01 23:42:00,
2013-03-01 18:52:00,26.0,19.0,30.09,NW,313,5.0,10.0,76,0.00,,,0.00,,2013-03-01 23:52:00,
2013-03-01 19:02:00,26.0,19.0,30.09,NNW,328,9.0,13.0,75,0.00,,,0.00,,2013-03-02 00:02:00,
2013-03-01 19:12:00,26.0,19.0,30.09,NNW,328,9.0,13.0,75,0.00,,,0.00,,2013-03-02 00:12:00,
2013-03-01 19:22:00,25.0,19.0,30.10,NNE,19,5.0,13.0,76,0.00,,,0.00,,2013-03-02 00:22:00,
2013-03-01 19:32:00,26.0,19.0,30.10,NNW,328,8.0,15.0,76,0.00,,,0.00,,2013-03-02 00:32:00,
2013-03-01 19:42:00,26.0,19.0,30.10,NNW,328,8.0,15.0,76,0.00,,,0.00,,2013-03-02 00:42:00,
2013-03-01 19:52:00,26.0,19.0,30.10,NNW,328,8.0,15.0,76,0.00,,,0.00,,2013-03-02 00:52:00,
2013-03-01 20:01:00,25.0,19.0,30.10,NNW,338,9.0,14.0,77,0.00,,,0.00,,2013-03-02 01:01:00,
2013-03-01 20:11:00,25.0,19.0,30.10,NNW,338,9.0,14.0,77,0.00,,,0.00,,2013-03-02 01:11:00,
2013-03-01 20:21:00,25.0,19.0,30.11,NNW,337,7.0,11.0,78,0.00,,,0.00,,2013-03-02 01:21:00,
2013-03-01 20:32:00,25.0,19.0,30.11,North,349,4.0,9.0,78,0.00,,,0.00,,2013-03-02 01:32:00,
2013-03-01 20:42:00,25.0,19.0,30.11,North,349,4.0,9.0,78,0.00,,,0.00,,2013-03-02 01:42:00,
2013-03-01 20:52:00,25.0,19.0,30.11,NNE,20,5.0,9.0,78,0.00,,,0.00,,2013-03-02 01:52:00,
2013-03-01 21:01:00,25.0,19.0,30.11,NNW,330,5.0,11.0,78,0.00,,,0.00,,2013-03-02 02:01:00,
2013-03-01 21:11:00,25.0,19.0,30.11,NNW,330,5.0,11.0,78,0.00,,,0.00,,2013-03-02 02:11:00,
2013-03-01 21:22:00,25.0,19.0,30.11,North,4,5.0,11.0,78,0.00,,,0.00,,2013-03-02 02:22:00,
2013-03-01 21:32:00,25.0,19.0,30.12,NNW,347,5.0,8.0,78,0.00,,,0.00,,2013-03-02 02:32:00,
2013-03-01 21:42:00,25.0,19.0,30.12,NNW,347,5.0,8.0,78,0.00,,,0.00,,2013-03-02 02:42:00,
2013-03-01 21:52:00,25.0,19.0,30.12,NW,323,6.0,10.0,78,0.00,,,0.00,,2013-03-02 02:52:00,
2013-03-01 22:02:00,25.0,19.0,30.12,North,350,5.0,9.0,79,0.00,,,0.00,,2013-03-02 03:02:00,
2013-03-01 22:11:00,25.0,19.0,30.12,North,350,5.0,9.0,79,0.00,,,0.00,,2013-03-02 03:11:00,
2013-03-01 22:22:00,25.0,19.0,30.12,North,4,4.0,9.0,78,0.00,,,0.00,,2013-03-02 03:22:00,
2013-03-01 22:32:00,25.0,19.0,30.12,NNE,19,5.0,12.0,79,0.00,,,0.00,,2013-03-02 03:32:00,
2013-03-01 22:42:00,25.0,19.0,30.12,NNE,19,5.0,12.0,79,0.00,,,0.00,,2013-03-02 03:42:00,
2013-03-01 22:52:00,25.0,19.0,30.12,NNE,15,5.0,10.0,78,0.00,,,0.00,,2013-03-02 03:52:00,
2013-03-01 23:01:00,25.0,19.0,30.12,NNW,335,4.0,12.0,78,0.00,,,0.00,,2013-03-02 04:01:00,
2013-03-01 23:11:00,25.0,19.0,30.12,NNW,335,4.0,12.0,78,0.00,,,0.00,,2013-03-02 04:11:00,
2013-03-01 23:22:00,25.0,19.0,30.11,NNW,347,7.0,11.0,78,0.00,,,0.00,,2013-03-02 04:22:00,
2013-03-01 23:32:00,25.0,19.0,30.11,NNE,20,6.0,10.0,79,0.00,,,0.00,,2013-03-02 04:32:00,
2013-03-01 23:42:00,25.0,19.0,30.11,NNE,20,6.0,10.0,79,0.00,,,0.00,,2013-03-02 04:42:00,
2013-03-01 23:52:00,25.0,19.0,30.10,North,359,6.0,9.0,78,0.00,,,0.00,,2013-03-02 04:52:00,